Theta_e
275 275 274 274 273 273 272 272 272 272 271 271 271 270 271 271 271 271 271 271 271 271 271 271 271 271 271 271 271 270 270 270 271 271 271 270 271 270 270 270 270 270 271 271 271 272 272 271 272 273 274 273 273 274 275 277 279 281 283 284 286 288 288 287 286 287 290 293 292 293 295 297 296 298 299 300 302 307 309 320 322 321 319 319 317
274 274 274 273 272 272 272 272 271 271 270 270 270 270 270 270 270 270 270 270 271 270 270 270 270 270 270 269 270 270 269 270 270 270 270 269 269 270 269 270 269 269 270 270 270 271 272 272 272 273 274 273 274 275 276 278 279 280 282 284 286 287 290 289 288 288 287 291 292 294 295 297 295 298 298 299 301 304 310 318 321 321 319 320 320
274 273 273 272 271 271 271 270 270 270 269 269 269 269 270 270 270 269 269 270 270 270 270 269 269 269 269 269 269 269 269 269 269 269 269 269 268 269 269 269 269 269 269 269 270 270 270 271 272 273 274 273 274 275 276 277 278 279 280 284 285 287 289 290 289 287 288 289 292 292 293 295 295 296 299 301 303 306 309 315 318 319 319 320 319
273 272 271 271 271 270 270 269 269 269 268 269 269 269 269 269 270 269 269 269 269 269 269 268 268 268 268 268 268 268 268 269 268 269 269 268 268 268 268 269 269 269 269 269 269 270 270 270 270 271 273 273 273 274 276 279 281 282 283 284 286 287 289 290 291 289 288 288 291 292 293 294 295 298 299 302 303 305 308 313 317 317 318 318 319
271 271 270 270 269 269 268 269 268 268 268 268 268 268 268 268 269 268 268 268 268 267 267 268 267 267 267 267 267 267 267 268 268 268 268 269 268 268 268 268 269 269 269 269 271 270 270 270 270 271 271 271 273 275 275 277 279 282 283 285 286 288 289 290 290 290 289 288 289 292 293 294 296 298 299 300 302 305 308 311 315 316 316 317 318
271 270 270 268 268 268 268 268 268 268 267 268 268 268 268 268 268 268 267 266 266 266 266 266 266 266 266 267 267 267 267 268 268 268 268 268 268 268 269 268 269 269 269 270 270 270 270 270 271 271 271 271 272 273 276 278 279 280 282 285 287 288 288 289 290 290 290 289 289 290 292 292 293 295 298 300 301 301 304 310 313 314 315 314 315
270 269 268 268 267 267 267 267 267 267 267 267 267 268 267 267 267 266 266 266 265 265 265 265 266 266 266 267 266 267 268 268 268 268 268 268 268 268 268 269 269 269 270 270 270 271 271 271 271 271 271 271 271 272 273 274 277 279 281 284 287 287 287 288 289 289 289 288 288 290 291 293 294 293 297 300 301 302 302 304 307 311 313 313 311
269 268 267 267 267 267 267 267 267 267 267 267 267 267 266 266 265 265 265 265 264 264 265 265 265 266 266 267 268 268 268 268 268 268 268 268 268 268 269 269 269 269 270 270 270 271 271 271 271 271 271 272 272 272 273 273 274 276 279 283 286 287 287 287 287 287 287 287 287 288 290 291 293 295 297 299 298 300 304 305 305 306 309 312 312
267 267 267 266 266 267 266 266 266 266 266 266 265 265 265 264 264 264 264 264 264 264 265 265 265 266 267 267 268 268 268 267 267 267 268 269 270 270 270 270 270 270 270 270 271 271 271 271 272 272 272 274 276 276 276 276 275 276 278 282 285 286 286 286 285 285 285 285 285 287 287 288 291 293 294 295 296 297 303 307 306 306 309 309 310
266 266 266 266 266 266 265 265 265 265 265 264 264 263 263 263 263 262 263 263 264 264 265 265 266 266 266 266 267 266 266 267 268 272 273 270 270 271 272 272 273 273 272 271 272 272 272 272 273 275 276 276 277 278 279 280 280 278 278 279 281 284 285 285 284 284 284 284 284 285 286 287 289 292 293 296 300 302 303 305 304 304 306 306 307
265 265 265 265 265 265 264 264 264 263 263 262 262 261 262 261 261 261 262 262 263 264 265 265 266 266 266 265 265 265 266 266 271 273 274 275 273 272 272 272 273 273 274 273 273 273 273 272 273 275 276 277 276 278 280 281 281 281 282 283 283 283 284 284 284 285 284 284 285 285 285 286 289 292 294 298 300 302 303 305 305 304 303 302 300
264 265 264 264 264 264 263 263 262 262 261 261 260 260 260 260 260 261 261 262 263 264 264 265 265 265 265 265 265 265 265 269 272 273 275 276 276 273 273 273 274 275 275 274 275 274 274 274 274 275 275 275 275 276 278 280 281 282 283 284 285 286 287 286 285 284 284 283 284 284 285 286 287 290 294 298 299 302 304 305 305 303 302 301 301
264 263 264 263 263 263 262 261 261 260 260 260 259 259 259 260 260 260 261 262 263 263 264 264 264 264 264 264 264 265 265 269 272 273 275 276 277 277 274 275 275 275 275 275 275 275 275 274 274 275 275 277 277 276 277 278 281 282 283 284 285 287 288 288 289 286 286 285 284 284 285 287 287 288 292 296 301 301 304 303 305 305 304 302 303
263 263 263 263 262 262 261 260 259 259 259 259 259 259 259 259 260 261 261 262 262 262 263 263 263 263 263 263 264 264 265 268 272 274 275 277 278 278 275 275 275 275 276 276 276 276 276 275 275 275 275 276 276 276 277 277 279 280 281 283 284 285 286 287 287 288 287 286 285 284 286 288 287 289 291 295 299 300 302 302 304 303 303 303 305
262 262 262 262 261 260 260 259 258 258 258 258 258 258 258 259 260 261 261 262 261 261 262 262 262 262 263 263 263 263 264 270 273 275 276 277 278 278 275 275 275 275 275 276 276 277 277 276 275 275 275 275 276 276 277 278 279 279 280 280 283 284 285 286 286 287 287 287 286 286 287 288 288 290 291 292 294 304 306 304 305 305 305 303 304
262 262 261 260 260 259 258 258 257 257 257 257 257 258 258 259 259 260 261 261 261 262 262 262 261 261 262 263 263 263 265 271 273 275 276 277 278 275 274 274 273 274 274 276 276 277 277 277 276 275 275 275 277 279 279 279 279 279 279 280 282 284 285 287 288 288 288 288 288 288 288 289 291 291 290 292 294 299 303 303 304 302 300 301 300
261 261 260 259 259 258 258 257 256 256 256 256 256 257 258 258 259 260 260 260 260 261 261 261 262 262 262 263 263 264 265 269 273 275 276 277 276 273 273 273 273 273 274 275 276 277 277 277 277 276 276 276 278 280 280 281 279 279 279 279 281 282 283 286 288 288 289 289 289 290 290 291 291 292 293 295 293 294 299 301 299 301 301 299 299
261 260 259 259 258 258 257 256 255 255 255 255 256 257 258 259 259 260 259 259 259 260 260 261 262 263 263 264 265 265 266 270 273 274 276 277 276 273 272 272 272 273 274 275 276 277 277 279 279 277 276 276 279 280 281 280 279 280 280 280 280 280 282 285 286 287 288 289 289 289 290 290 291 292 293 294 294 295 297 299 299 303 301 300 299
260 259 259 259 258 257 256 256 255 255 255 256 256 256 257 258 259 260 260 259 259 260 260 261 262 264 265 265 268 268 267 269 272 274 276 276 274 273 272 272 272 272 273 274 275 276 277 278 279 279 278 278 280 281 281 280 279 279 279 280 280 280 282 284 284 285 285 286 286 287 288 288 290 292 292 293 294 294 300 302 302 303 301 300 300
260 259 258 257 257 256 256 255 255 254 255 255 256 257 258 258 258 258 259 259 259 260 260 261 263 264 266 266 267 267 267 268 270 274 275 276 276 273 272 271 271 272 273 274 274 276 277 277 278 280 281 281 282 282 282 282 281 281 280 279 279 279 283 284 285 285 286 286 286 286 286 287 288 291 293 294 295 294 300 304 305 304 302 301 300
259 258 257 256 256 255 255 255 254 254 254 255 256 257 258 258 258 258 258 258 259 260 261 263 264 265 266 267 267 267 268 268 270 274 275 275 276 275 272 272 272 273 273 273 274 274 275 276 278 279 281 281 282 282 282 282 283 282 282 281 281 282 284 283 285 286 285 285 285 286 286 286 288 291 293 295 296 297 301 301 305 307 304 302 301
258 256 256 256 255 254 254 254 254 253 254 255 255 256 257 257 257 257 258 258 258 260 263 263 264 265 266 267 267 267 269 271 269 272 274 275 276 276 273 272 273 273 272 273 273 274 275 276 277 279 281 281 282 282 283 283 283 282 282 284 285 285 284 284 285 285 285 285 285 285 285 286 288 291 293 295 296 296 300 303 302 305 307 307 304
256 256 255 254 254 253 253 253 253 252 253 254 254 255 256 256 256 257 257 257 259 261 262 263 263 265 266 266 267 268 268 269 272 270 273 275 276 276 276 275 276 274 272 272 272 273 275 276 277 279 281 282 282 283 283 284 283 282 284 285 285 286 285 284 285 285 285 285 285 284 285 286 288 292 293 294 296 297 298 301 302 301 302 304 306
255 254 253 253 253 253 253 252 253 252 253 254 254 254 255 255 256 256 257 258 260 261 262 263 264 264 264 265 266 267 268 268 270 272 272 274 275 276 276 276 276 273 273 272 273 273 274 275 276 279 281 282 283 283 284 284 283 284 285 285 285 286 285 285 285 285 285 285 284 285 285 287 290 293 293 295 296 295 296 300 301 301 300 297 293
253 253 253 252 252 252 252 252 252 253 253 254 254 254 254 254 255 256 257 258 260 261 261 263 264 264 264 265 265 266 267 268 268 270 273 274 274 275 275 275 275 276 272 272 273 274 276 279 280 280 281 282 283 284 284 283 284 284 285 285 285 285 285 285 285 285 285 284 285 285 286 287 292 295 296 297 296 294 292 291 290 292 292 292 292
252 252 252 252 252 252 252 254 254 254 253 254 253 254 254 254 255 256 257 259 260 261 261 264 264 264 264 265 265 266 267 267 268 268 271 272 272 273 274 274 273 274 274 273 275 277 277 278 279 279 280 281 281 282 282 282 283 284 284 285 284 285 285 285 285 285 284 285 285 285 286 289 293 295 295 296 296 293 292 292 293 293 295 296 295
252 252 251 252 251 252 253 254 254 253 253 253 254 254 254 255 255 257 259 259 260 261 263 264 264 264 264 264 265 265 266 267 267 268 270 269 269 269 269 269 272 272 271 271 273 273 274 276 276 278 280 281 282 283 283 284 283 283 284 285 285 285 285 286 285 285 285 285 285 286 287 290 292 292 293 294 294 294 294 293 295 295 297 297 295
252 251 251 252 252 252 253 254 254 253 253 253 253 253 254 255 256 258 259 260 260 262 264 264 264 264 264 264 264 264 265 266 267 268 269 269 269 269 268 268 268 269 269 270 271 272 273 277 278 278 279 280 281 282 283 283 283 283 284 284 285 285 285 286 286 286 286 286 286 287 288 289 291 292 293 293 294 294 294 294 294 295 296 296 295
252 251 252 252 253 253 252 251 252 253 253 253 253 253 253 254 257 259 262 263 264 264 264 264 265 265 265 265 264 264 265 266 267 273 271 273 270 268 267 267 268 269 271 274 270 270 270 272 276 278 279 280 281 282 283 283 283 283 284 285 285 285 285 285 284 285 285 285 285 286 286 289 291 292 292 293 293 294 294 295 293 294 295 297 295
251 251 252 252 252 252 252 251 251 252 252 252 252 253 257 262 262 262 262 266 268 269 269 265 266 266 266 266 266 266 266 267 273 274 273 273 273 273 272 272 272 271 273 272 269 266 266 267 268 270 271 274 278 282 283 283 283 283 284 285 285 285 285 285 285 285 286 286 286 286 287 289 290 292 293 293 293 293 294 294 293 294 295 295 294
252 251 251 251 253 252 251 252 252 252 252 252 251 252 253 254 260 264 265 266 267 268 268 269 269 270 267 265 267 271 272 272 273 273 273 272 272 272 271 270 271 272 272 267 264 263 263 264 265 266 268 269 270 271 277 283 284 284 284 285 285 285 285 285 285 286 286 286 286 287 289 290 291 292 292 292 292 292 294 294 295 295 295 295 294
252 251 251 252 254 253 253 252 252 251 251 252 251 252 250 251 253 261 266 265 266 266 267 268 268 268 269 268 267 266 269 271 272 272 272 272 271 271 270 269 270 271 270 269 262 262 262 263 264 264 265 266 267 269 270 272 277 282 285 284 285 285 285 285 286 286 286 286 286 287 289 290 291 291 292 292 291 292 293 293 294 295 296 295 294
252 251 251 252 253 253 252 252 251 251 250 251 251 250 249 249 249 250 254 263 265 265 265 266 267 267 268 269 269 270 270 270 271 271 271 271 270 270 269 267 269 269 268 263 262 261 262 263 263 264 264 264 266 266 268 270 271 273 278 283 284 285 286 286 286 286 286 286 287 288 289 290 291 291 291 291 291 292 292 293 294 295 295 295 293
252 252 251 252 252 252 252 251 250 250 250 251 251 249 249 249 249 249 250 250 253 258 262 263 264 265 266 267 268 270 270 270 270 270 270 270 269 268 267 262 267 268 265 260 262 261 262 262 263 263 263 264 265 266 266 267 268 270 273 275 281 286 286 287 286 286 286 286 287 288 289 290 291 291 291 291 292 292 292 293 293 294 294 294 293
250 252 253 253 253 253 252 252 251 251 251 251 250 248 248 249 250 250 249 249 249 250 251 253 258 263 262 263 266 269 269 269 269 269 269 269 268 267 264 257 255 256 256 258 261 261 261 262 262 263 263 264 264 265 265 266 267 268 269 271 274 278 285 286 286 286 286 287 287 288 289 290 290 291 291 291 291 291 292 292 293 293 294 293 293
251 252 253 253 253 252 251 250 252 250 248 248 248 249 249 249 249 249 249 250 249 249 250 251 252 257 263 263 266 267 268 267 267 267 267 267 267 264 255 254 254 254 255 256 259 262 262 263 263 263 264 264 264 265 265 266 266 267 268 269 271 273 278 285 287 286 286 287 287 288 289 290 291 291 291 291 291 291 292 292 292 292 293 293 293
252 252 252 251 250 248 248 248 248 251 254 251 248 247 247 248 249 248 248 247 249 250 250 250 251 252 256 257 261 264 266 265 265 265 265 265 265 257 255 254 253 254 254 255 259 262 262 263 263 263 264 264 264 265 265 266 266 267 268 268 269 270 274 281 286 287 287 287 288 288 289 290 290 291 291 291 291 292 292 292 292 291 292 291 290
251 251 251 250 249 249 248 248 251 252 248 248 246 246 247 247 247 247 248 247 249 249 248 249 251 250 251 254 258 260 258 261 262 260 260 260 256 254 255 254 254 253 254 255 258 261 262 263 264 264 264 264 264 265 265 265 266 266 266 267 268 269 273 276 283 287 287 287 288 289 289 290 290 291 291 291 291 291 291 291 292 292 291 290 291
251 255 256 256 253 249 248 248 248 246 246 247 246 247 248 247 247 246 246 246 247 247 248 248 249 249 250 252 255 259 256 253 253 253 254 254 255 254 254 254 253 253 254 256 259 261 262 262 263 264 264 264 265 265 265 265 266 266 266 266 267 268 269 271 276 286 287 287 288 289 290 290 291 291 291 291 291 291 291 291 291 292 291 291 292
252 255 257 258 254 252 249 248 247 246 246 246 245 246 245 246 245 245 245 245 246 247 247 248 248 248 250 252 258 258 252 251 252 253 254 253 254 254 254 253 253 252 253 256 259 260 262 262 264 264 264 265 265 265 265 266 266 266 266 266 266 266 267 269 270 273 282 287 288 289 289 290 290 291 291 291 292 291 291 291 291 291 292 292 292
251 253 255 256 253 250 249 248 246 245 244 245 245 243 244 246 245 246 244 245 246 247 247 247 247 248 250 257 263 261 251 250 251 252 253 253 253 253 252 253 253 252 253 256 258 260 261 262 263 264 265 265 265 265 265 266 266 266 266 266 266 266 266 267 268 269 270 277 287 288 289 290 290 290 290 291 290 291 291 291 291 291 292 292 292
250 250 250 250 250 248 247 246 245 246 243 245 244 244 245 245 244 244 245 245 246 247 246 246 247 247 251 260 260 261 252 250 251 252 252 253 253 253 253 254 253 253 254 256 258 260 261 262 263 264 265 265 265 265 266 265 266 265 266 265 265 265 265 265 266 267 268 270 275 285 288 289 290 290 291 289 291 291 291 291 292 292 292 291 291
249 249 248 248 247 247 247 245 243 241 243 243 243 247 247 244 243 244 243 245 245 247 246 246 246 247 248 255 256 257 250 249 250 251 251 252 253 253 253 253 253 253 254 256 259 260 262 262 263 264 265 265 265 265 265 266 266 266 266 265 265 265 265 265 265 266 267 268 270 275 284 289 289 290 290 290 291 291 291 290 291 291 291 291 291
249 248 248 247 247 246 245 244 244 244 243 246 245 245 245 243 242 242 242 242 244 244 244 245 246 246 247 248 249 248 248 248 249 250 251 252 252 253 253 253 254 253 254 257 258 260 262 262 263 263 265 266 266 266 266 267 267 266 266 266 265 265 265 265 265 265 266 267 268 272 278 286 289 289 289 290 290 290 290 290 290 290 290 291 291
248 248 247 246 245 245 244 243 243 242 244 243 241 241 243 241 242 242 243 242 244 244 244 244 245 245 246 246 247 247 247 247 249 249 250 250 251 252 253 253 253 253 254 256 257 259 261 262 263 263 264 265 266 266 266 267 267 267 267 267 266 265 265 265 265 266 267 267 268 270 275 283 288 289 289 289 289 290 290 290 290 289 289 290 290
248 247 247 246 245 245 243 242 243 241 240 240 239 239 239 240 239 241 243 243 243 244 243 244 243 244 245 245 246 247 247 247 248 249 249 250 250 251 252 253 253 253 255 256 257 259 261 262 262 263 263 265 266 266 266 267 267 268 268 268 267 267 267 266 267 267 267 268 268 270 273 280 286 288 288 289 290 290 290 290 290 290 290 290 290
247 247 247 246 246 245 244 243 241 239 239 241 241 241 241 241 241 242 243 244 243 243 244 243 243 243 244 244 245 245 246 247 247 248 248 249 249 251 252 252 253 253 255 256 257 259 261 262 262 263 263 265 266 266 266 267 267 268 268 268 268 268 267 267 267 267 267 268 269 270 273 280 285 286 287 288 289 289 289 289 289 289 289 290 290
247 247 246 245 245 244 243 242 243 244 241 241 241 241 242 242 241 241 241 241 241 241 241 242 241 242 244 244 245 245 246 246 247 248 248 249 249 250 251 252 252 253 254 255 256 258 261 262 262 263 263 264 266 266 266 267 267 267 268 268 268 268 268 267 267 267 267 268 269 270 272 277 286 286 286 286 286 287 287 288 288 289 289 289 289
247 247 246 245 245 244 243 243 242 240 240 240 240 241 241 241 240 240 240 240 241 241 240 241 242 243 243 244 245 245 246 246 246 247 247 248 248 249 250 251 252 253 254 254 255 258 260 261 262 263 263 264 266 267 266 267 267 267 267 268 269 269 268 268 267 267 267 268 268 269 271 272 273 279 284 286 286 286 287 287 287 287 287 288 288
247 246 246 246 244 242 241 241 240 238 240 240 238 239 241 241 239 240 240 241 240 240 240 240 242 242 242 243 244 244 245 245 246 246 247 247 248 248 249 250 251 252 254 254 255 258 260 261 261 262 263 264 265 267 267 267 267 267 268 268 269 269 268 268 267 267 267 267 267 268 269 270 271 272 272 275 281 286 286 286 286 286 287 286 286
247 247 246 245 244 243 242 240 239 238 238 239 237 239 240 239 238 239 240 240 240 241 242 241 241 242 242 242 244 244 244 245 245 246 246 247 247 248 248 249 250 252 253 254 255 258 259 260 261 262 263 264 264 267 268 267 267 267 268 269 269 269 268 268 267 267 267 267 267 267 267 267 268 268 270 271 273 276 281 285 286 286 286 286 286
Wind_Speed
6 5 4 4 3 4 4 3 4 4 6 6 7 7 8 9 9 10 11 11 11 13 13 14 14 14 15 15 16 16 16 16 14 13 14 14 15 16 16 16 17 16 16 18 16 16 18 18 18 18 17 19 17 17 18 18 18 16 15 17 18 17 17 16 16 21 12 10 13 12 13 13 14 12 16 15 14 15 16 16 17 15 14 14 15
6 5 4 3 4 3 4 3 3 5 6 6 7 7 8 8 9 10 11 12 11 12 14 13 13 15 15 16 16 16 16 16 15 13 15 17 17 15 13 17 17 18 16 17 16 14 16 18 18 19 17 19 19 19 17 16 17 16 16 16 16 16 16 16 16 13 18 9 13 11 12 11 14 14 12 15 14 14 15 17 15 17 15 14 14
5 4 3 3 3 3 3 3 4 6 6 6 6 7 8 9 9 10 11 11 11 11 13 14 15 15 15 15 16 16 16 15 14 15 16 18 18 18 17 17 19 18 18 17 17 16 18 18 18 17 15 18 19 19 19 20 18 17 18 17 17 16 15 16 14 16 15 13 11 13 11 12 13 16 13 13 14 13 14 17 16 14 14 16 15
5 4 3 3 3 3 3 4 5 6 5 5 7 7 8 9 9 10 11 11 12 12 12 13 14 15 16 16 15 16 16 15 16 16 18 17 19 20 18 18 18 18 18 18 17 16 18 19 17 17 18 20 19 18 17 17 16 15 17 18 17 18 15 14 15 13 11 14 10 11 10 12 13 14 13 13 13 13 13 15 15 17 17 16 17
5 4 4 3 3 3 3 4 5 6 6 5 7 8 8 9 9 10 11 11 11 12 12 12 14 14 14 15 17 16 16 17 18 18 17 18 19 19 20 18 18 18 18 18 17 18 18 18 19 17 17 19 19 17 17 19 17 16 16 16 16 16 12 13 12 12 13 14 13 11 11 11 12 13 12 12 13 13 14 17 16 16 15 17 15
5 4 4 3 3 4 4 4 5 5 5 6 7 7 8 8 9 10 10 12 12 12 12 12 12 15 16 16 16 16 16 18 19 19 19 18 18 18 18 19 18 18 18 17 17 17 17 19 18 17 18 18 18 18 16 17 15 16 18 17 15 12 11 11 11 12 13 14 12 12 10 12 12 13 13 12 13 13 13 15 15 14 16 14 15
5 5 4 4 3 3 4 4 4 4 4 5 6 7 8 9 10 10 10 11 12 13 13 14 13 14 16 16 15 16 19 18 18 19 19 20 19 18 19 18 19 18 17 18 17 17 18 18 18 17 18 19 19 19 18 19 15 15 16 18 14 10 9 10 9 11 12 12 12 13 13 12 12 15 12 11 13 13 14 11 14 13 14 17 14
5 4 4 4 3 3 3 4 4 4 4 5 6 7 8 8 10 10 10 11 12 13 14 15 15 14 14 15 16 16 17 18 18 19 19 19 19 19 17 19 18 19 19 18 18 18 18 19 19 19 18 17 18 19 19 19 18 16 15 16 13 11 10 9 9 10 11 10 10 10 11 11 8 11 11 10 11 12 13 14 15 13 13 15 17
5 5 4 4 3 3 3 3 3 4 4 5 6 7 8 9 10 10 10 11 10 12 13 15 16 16 14 15 16 15 16 16 14 15 16 19 19 19 20 19 20 18 20 18 19 18 19 17 19 18 19 24 28 26 24 21 15 13 16 16 13 9 8 7 6 9 11 10 10 10 12 13 12 11 11 10 12 14 11 14 14 13 14 15 16
6 5 4 4 3 2 3 3 3 3 4 5 6 7 8 9 9 10 11 11 11 12 13 14 15 15 16 16 15 15 15 13 18 28 26 20 20 18 17 18 18 18 17 17 19 19 20 18 16 24 26 27 29 30 30 30 31 23 16 15 15 11 7 7 7 9 10 10 9 9 11 13 13 11 12 12 13 13 13 15 14 12 12 13 13
6 5 4 3 3 2 2 2 2 3 4 5 6 7 9 8 9 10 10 10 11 12 12 14 14 13 16 16 17 15 15 14 28 29 30 32 24 20 19 18 18 19 18 17 18 19 18 17 17 19 21 23 22 30 30 31 30 30 32 31 25 20 11 9 9 9 11 11 8 8 11 13 13 12 13 14 12 13 14 14 13 14 16 17 17
6 5 4 3 3 2 2 2 3 4 4 6 7 7 8 8 9 9 9 10 10 10 12 13 13 15 14 16 16 16 16 23 30 31 32 32 29 21 18 16 16 14 18 16 17 16 16 15 14 13 12 14 17 18 23 27 28 29 29 30 30 33 29 15 10 10 11 11 10 10 11 12 13 12 13 12 12 14 16 14 15 16 14 13 13
6 6 4 4 3 2 1 1 3 4 5 6 7 7 8 8 8 9 9 9 10 10 13 13 14 14 15 16 17 17 17 24 30 32 31 31 31 27 17 17 15 16 16 18 17 16 16 16 14 12 13 19 18 18 18 18 21 25 25 27 28 26 24 26 22 14 10 11 11 12 12 12 13 14 14 14 13 14 16 14 15 17 16 15 15
6 5 5 4 3 2 1 1 3 4 5 6 7 7 7 8 8 8 9 9 10 11 11 13 13 15 15 16 17 17 18 23 30 31 31 31 31 28 17 17 16 16 17 16 15 15 16 16 15 13 13 14 13 16 16 17 14 13 14 13 13 16 19 20 22 22 19 15 13 14 14 10 14 15 16 14 16 16 15 16 14 17 19 20 15
6 5 5 4 3 2 1 1 3 5 6 6 7 7 7 7 8 8 8 9 11 10 12 12 13 12 14 14 15 16 15 27 30 32 31 31 31 28 14 15 15 16 16 17 17 17 17 17 16 16 15 13 12 16 16 15 12 12 13 14 13 12 12 12 12 13 13 13 13 15 16 16 16 17 17 16 19 18 16 18 20 18 17 14 12
5 5 4 3 3 2 1 1 3 5 6 6 6 7 7 7 8 8 8 10 9 9 10 10 12 13 13 13 14 16 16 28 30 31 32 30 32 18 14 15 16 16 16 16 15 14 16 16 15 16 15 16 17 23 22 17 13 14 13 14 14 13 12 11 15 15 14 12 12 13 13 16 18 16 17 16 17 16 16 14 17 16 15 16 15
5 5 4 4 3 2 1 2 4 5 5 6 6 7 8 8 8 7 9 9 11 10 10 10 11 12 13 13 14 15 15 22 29 31 30 31 25 15 16 15 15 16 16 16 15 14 15 16 15 13 14 15 19 22 23 24 16 16 15 14 13 12 13 10 15 21 23 23 23 25 26 27 28 30 31 31 21 18 13 13 13 16 18 18 16
5 5 4 4 3 2 1 2 4 5 5 5 6 7 7 6 7 7 9 11 11 10 10 10 10 11 15 16 13 16 16 22 30 29 30 29 26 18 14 15 15 16 16 16 14 14 15 24 22 17 16 16 22 23 23 21 15 13 11 13 14 13 13 11 10 10 16 20 22 22 23 25 27 31 32 32 31 24 16 16 17 19 19 18 17
5 5 4 4 3 2 2 3 4 5 6 6 5 6 6 6 7 7 8 9 10 10 10 10 11 12 13 14 20 20 15 19 27 28 29 30 25 16 15 14 16 16 15 16 14 14 14 15 22 22 19 20 25 23 24 20 15 14 12 11 13 14 13 11 11 11 9 9 10 10 13 16 16 16 18 27 28 24 19 19 19 20 22 21 20
5 5 4 4 3 1 2 3 5 5 6 6 5 5 5 6 7 8 8 7 9 9 9 9 14 13 12 12 11 13 15 15 19 29 28 29 30 20 15 15 16 16 16 14 14 13 13 14 15 20 25 26 26 26 25 26 17 13 12 12 13 15 10 10 10 9 10 9 10 11 12 12 14 15 14 15 16 17 20 18 21 20 23 22 22
5 5 4 4 2 2 3 4 6 6 6 6 5 5 4 6 7 7 8 8 8 10 11 12 12 12 11 10 11 13 12 18 19 28 29 30 31 27 14 15 15 15 15 15 14 15 14 13 12 16 21 23 25 25 24 25 24 15 13 13 13 13 13 11 11 11 9 9 10 11 10 10 12 13 13 12 12 13 15 16 18 21 24 24 22
5 5 4 3 2 2 4 5 6 5 5 5 5 5 4 4 6 7 7 8 11 12 12 10 12 11 9 12 11 13 16 22 19 24 29 31 31 32 19 16 18 17 16 15 15 15 15 14 13 16 20 21 23 24 24 23 25 17 15 20 23 24 17 12 11 9 8 9 9 10 11 10 12 11 11 10 10 10 11 14 13 12 19 27 27
5 5 4 2 2 4 4 4 4 3 3 3 4 5 5 6 7 7 8 9 10 12 12 12 12 10 12 11 11 11 13 14 22 20 28 31 32 31 31 24 28 19 15 16 16 16 15 15 15 22 22 22 22 23 23 24 20 15 22 23 24 25 20 12 10 11 11 9 9 10 11 10 11 11 9 8 9 9 8 10 10 10 10 12 17
5 5 3 2 2 3 3 3 4 2 3 3 3 4 6 6 6 5 7 8 8 10 10 11 10 13 15 16 14 13 13 11 17 26 27 32 30 31 30 31 30 19 17 15 15 16 15 15 15 23 24 24 24 24 24 22 15 19 22 23 23 20 12 12 10 12 8 8 9 10 11 10 11 10 8 8 9 8 7 8 9 11 8 6 10
5 4 2 2 3 3 3 2 1 1 2 2 4 5 7 6 7 6 6 7 8 9 11 10 11 13 14 15 17 18 18 15 17 23 33 31 32 30 31 32 30 28 19 15 16 15 20 28 29 27 25 25 25 25 21 23 26 22 22 23 21 11 11 10 11 8 9 11 9 9 10 11 11 11 8 7 8 4 3 4 5 6 7 10 9
6 5 3 2 2 1 1 1 1 0 1 2 3 2 4 4 5 7 6 7 8 8 10 9 12 12 13 13 13 15 16 17 16 17 16 25 26 30 32 30 29 29 26 19 25 30 30 29 30 28 24 19 14 11 10 10 18 22 21 19 11 10 8 10 9 10 10 9 8 10 10 10 10 8 7 7 8 5 6 7 9 9 11 12 10
6 4 3 2 1 1 2 2 1 0 1 3 3 3 2 4 6 5 6 7 8 9 9 11 10 12 12 12 13 15 13 14 15 14 14 18 18 21 22 21 26 24 17 16 19 18 22 22 17 19 18 21 21 20 16 15 14 12 10 10 9 9 8 7 8 8 7 7 8 8 8 10 8 5 6 6 8 9 9 9 11 13 13 12 14
6 6 5 3 1 2 3 4 4 2 3 4 5 6 5 4 4 5 6 7 7 8 9 9 10 10 12 13 15 14 13 16 17 17 20 19 19 19 19 18 17 16 18 18 18 18 18 19 16 10 10 10 10 9 8 8 9 9 9 8 8 9 9 10 9 7 8 7 7 7 9 10 7 6 6 7 8 10 9 8 9 13 13 14 14
6 6 4 4 3 1 3 3 4 5 5 4 1 2 4 6 6 7 8 8 8 9 8 10 10 10 11 12 14 12 12 14 17 25 24 29 24 22 19 18 18 17 21 29 20 15 13 14 10 7 6 8 8 8 6 7 7 8 9 8 7 6 7 6 7 7 7 6 8 9 9 8 7 6 7 7 8 9 9 10 7 11 13 15 16
8 6 5 5 4 3 3 3 3 5 6 9 10 6 4 7 7 7 7 15 18 18 16 11 12 11 11 11 12 13 14 17 29 32 32 32 33 33 30 30 29 24 26 30 19 11 12 11 12 12 12 12 11 7 7 6 6 6 7 8 8 8 7 6 6 7 6 8 9 8 8 8 7 7 8 8 6 8 10 12 10 10 13 14 15
7 6 6 5 4 3 3 3 2 4 6 5 4 9 13 7 5 7 12 16 17 20 18 19 21 21 16 11 13 23 27 29 30 30 31 31 32 32 32 30 30 31 28 20 12 12 12 12 12 12 12 10 11 14 13 8 6 5 5 6 6 7 7 6 7 6 7 8 8 8 8 8 7 7 9 9 8 8 9 9 11 12 12 13 15
9 8 6 5 5 4 3 3 3 5 5 3 3 5 5 11 16 15 13 14 17 17 18 21 22 21 21 20 18 13 22 28 30 30 30 31 31 31 30 30 30 32 26 23 14 15 12 12 12 12 12 11 12 12 12 12 14 8 6 6 6 6 7 7 7 7 8 8 8 7 8 8 7 7 8 10 9 9 10 10 10 13 13 12 13
11 10 7 5 4 5 3 3 3 5 4 2 2 2 3 4 6 13 18 22 20 14 14 18 22 22 22 22 23 23 24 26 29 29 30 30 31 30 29 27 29 31 28 16 12 13 12 11 12 12 12 12 12 11 11 11 10 11 12 8 8 7 7 8 8 8 9 8 7 7 8 8 8 7 7 7 10 10 10 12 11 12 14 14 12
9 8 8 8 6 5 4 3 5 5 2 1 0 1 2 3 4 5 7 12 17 20 20 21 21 22 21 23 24 25 26 27 27 28 29 30 30 29 27 21 29 33 26 12 12 12 11 12 12 12 12 11 11 11 11 11 11 11 11 11 11 7 7 7 8 7 7 8 8 7 8 8 7 7 7 7 9 10 11 11 12 11 12 14 14
8 6 8 6 5 4 4 3 4 4 2 1 0 1 2 3 3 3 4 5 7 8 10 12 15 20 17 17 22 25 27 26 26 26 29 29 29 27 24 17 21 19 16 13 12 11 12 11 11 13 12 12 11 12 11 11 11 10 10 11 11 12 9 7 6 6 7 7 7 7 8 9 8 7 8 8 9 10 11 11 10 11 12 13 14
7 6 6 5 5 5 4 4 4 5 2 0 1 1 3 3 4 4 4 4 4 7 9 9 10 12 20 18 24 24 27 26 25 25 26 28 28 26 16 16 16 16 15 13 12 11 9 10 12 11 10 10 12 11 11 11 11 10 10 10 11 11 12 9 5 6 7 6 7 9 8 8 9 8 7 8 10 12 11 11 11 12 12 12 13
7 6 6 5 5 5 5 5 5 4 4 2 1 1 2 3 4 3 4 3 5 5 6 8 9 12 13 11 18 20 26 23 23 23 25 25 26 15 10 9 11 13 13 13 12 12 13 10 10 11 11 12 11 11 11 11 11 12 11 11 10 11 10 11 8 6 6 6 6 8 9 9 10 9 9 8 9 9 11 11 11 11 11 13 14
8 8 8 7 6 6 5 6 6 7 4 1 1 1 1 2 2 3 4 4 5 6 7 7 8 7 11 13 18 11 16 18 19 15 17 19 17 14 12 13 15 11 12 12 11 12 12 12 10 11 10 10 11 11 11 11 12 12 12 12 11 10 17 14 14 9 8 7 7 8 8 8 9 10 9 9 10 10 9 11 11 10 10 14 14
7 10 13 13 8 6 6 7 6 5 3 1 1 2 3 3 3 3 4 4 4 5 6 7 7 8 9 11 9 11 15 12 13 14 14 13 12 13 13 13 14 13 12 10 11 12 12 13 11 9 10 11 12 11 11 11 12 12 12 12 11 11 12 11 13 9 6 6 7 8 8 8 9 10 10 10 10 10 11 11 11 12 13 13 14
7 6 9 12 7 7 6 7 6 5 4 1 1 1 1 2 2 4 4 4 5 5 5 6 7 7 10 10 8 9 11 10 8 12 14 13 14 14 15 12 12 11 12 13 12 12 13 12 11 11 12 14 13 11 10 11 11 11 11 11 11 11 11 11 10 13 10 6 6 7 8 9 9 9 10 11 10 10 11 12 11 12 13 14 14
6 6 6 7 8 7 6 7 7 4 2 1 1 1 1 2 3 4 3 4 4 4 5 6 6 7 9 13 22 18 7 8 9 10 12 11 12 11 12 10 11 13 13 11 11 12 12 12 12 12 11 11 12 12 12 11 12 12 12 12 12 11 11 10 10 10 12 12 7 7 8 9 9 10 11 11 10 10 10 11 12 12 12 12 12
8 7 7 6 7 6 7 7 6 5 2 2 1 0 2 3 2 2 4 4 5 5 5 5 6 6 12 22 20 21 10 6 8 10 10 12 13 14 14 13 13 11 11 10 11 12 12 13 12 11 12 14 13 13 12 13 13 12 11 11 12 12 11 11 11 11 11 11 13 8 8 9 9 10 12 11 10 10 10 10 11 12 11 11 11
8 7 7 8 6 6 7 6 5 4 2 1 1 1 2 1 1 3 3 4 3 5 5 7 8 8 9 15 17 17 7 8 7 9 9 10 11 12 13 12 13 14 10 8 10 10 11 11 11 11 13 14 14 13 12 13 13 12 10 11 11 11 11 12 11 11 10 11 11 13 9 8 10 10 10 9 10 10 10 11 11 12 12 12 11
8 7 6 6 7 7 7 7 5 3 1 1 1 0 1 1 1 1 2 3 3 4 4 5 6 8 8 10 11 9 8 9 9 9 9 9 10 12 13 13 14 14 13 11 10 11 10 11 11 11 13 13 14 13 13 12 12 12 12 11 10 12 11 11 12 11 11 11 11 11 10 7 9 9 10 10 10 11 10 11 11 10 11 11 12
8 8 8 7 6 7 6 4 4 3 3 3 1 0 1 1 1 1 1 2 5 4 5 4 5 5 7 8 8 8 8 8 8 9 9 10 10 10 11 13 13 16 13 12 11 11 11 11 11 12 15 14 15 14 13 13 13 10 10 11 12 11 12 11 10 11 10 10 10 10 10 8 6 8 9 10 11 11 11 12 11 12 12 12 13
8 8 8 8 8 8 8 6 5 3 2 2 1 1 1 1 1 1 3 3 3 4 4 4 4 4 6 6 7 7 8 8 8 7 8 9 9 10 9 10 10 13 13 13 12 13 11 11 11 12 12 12 16 15 14 13 13 13 13 12 12 12 12 12 11 10 10 10 9 9 9 9 6 6 8 9 10 11 11 11 11 12 12 13 14
8 7 7 7 8 8 7 7 5 3 2 1 1 1 1 1 1 2 3 3 2 4 4 4 4 5 6 6 7 7 8 7 8 8 9 9 9 10 9 9 11 11 13 16 14 12 11 12 11 13 13 14 15 17 16 15 13 12 14 13 14 16 14 14 11 10 10 10 10 9 8 9 6 5 6 7 8 10 10 11 11 12 12 12 12
7 7 7 8 7 7 6 6 5 4 3 2 1 1 0 1 1 2 3 3 2 4 3 4 4 5 6 6 6 6 6 6 7 7 8 8 9 9 10 12 11 10 13 15 14 12 10 11 13 14 13 14 16 17 16 16 15 15 15 15 16 19 22 22 14 13 10 10 9 9 8 8 4 6 6 7 7 6 7 8 9 10 11 11 10
7 8 7 7 7 7 7 7 7 5 4 3 1 1 1 1 1 1 1 2 2 2 2 3 4 5 5 5 6 7 6 7 7 8 8 9 9 10 10 11 12 11 12 15 15 13 13 13 14 13 14 13 13 16 17 17 18 17 18 17 24 36 30 29 19 18 18 10 9 10 9 8 9 4 2 7 7 7 7 7 8 8 7 7 9
7 7 7 7 7 6 6 5 5 5 5 3 2 1 0 1 1 2 2 2 2 3 3 3 4 4 5 6 7 7 7 7 8 8 8 8 8 9 10 11 11 12 11 11 13 11 12 13 15 13 14 14 12 13 16 16 18 18 18 22 34 37 36 31 26 31 22 10 11 9 10 10 9 8 7 6 1 7 8 8 9 9 9 10 10
6 5 5 6 6 6 6 6 5 5 5 3 2 1 0 0 1 1 2 2 3 4 3 3 4 4 5 5 6 6 7 7 7 7 7 8 9 9 9 10 11 11 12 13 12 11 12 13 11 12 14 13 15 12 15 17 17 20 28 37 39 37 38 34 23 27 32 22 13 13 13 13 13 13 11 9 8 5 1 6 9 8 9 9 9
Wind_Direction
171 184 185 200 218 241 259 268 284 283 277 278 283 285 287 288 290 291 296 291 293 294 295 297 298 297 298 295 294 293 291 290 289 288 289 284 285 284 286 282 280 279 279 279 273 272 271 269 267 265 265 262 257 255 254 254 257 256 255 255 255 253 243 244 249 259 258 242 264 263 268 274 274 262 272 274 278 275 250 215 200 194 190 188 193
173 177 184 196 218 245 254 271 279 272 274 283 288 289 290 292 294 298 293 292 293 295 297 298 297 296 295 292 292 291 290 289 290 290 290 292 289 291 285 284 282 280 280 278 276 275 277 273 270 269 265 266 265 260 255 253 250 254 256 254 251 250 239 240 245 255 265 252 261 259 267 264 272 263 255 267 270 270 257 232 205 196 193 190 188
165 170 180 199 232 244 261 275 274 273 283 291 291 294 294 295 297 297 295 296 296 296 299 299 298 296 294 292 294 293 290 290 291 293 293 294 289 289 285 283 280 279 277 275 275 274 273 275 277 275 270 266 262 259 257 256 253 252 252 253 256 251 241 236 241 250 261 263 256 268 265 265 261 275 267 264 265 266 261 236 210 198 194 189 189
160 166 183 211 227 246 261 266 267 274 284 286 287 292 295 295 299 294 295 299 301 301 298 297 297 297 296 294 292 292 292 292 294 295 293 290 290 284 283 282 278 276 275 276 276 275 274 273 272 276 275 267 262 262 260 259 250 241 240 247 250 253 244 241 240 249 259 270 255 260 264 268 270 268 275 268 263 262 255 243 217 198 189 189 185
157 170 188 212 232 240 256 262 263 273 280 284 290 296 300 301 299 299 301 300 300 301 298 299 297 296 294 294 295 293 292 295 299 296 292 292 285 285 281 279 276 275 274 273 273 273 272 272 274 273 273 274 273 263 255 255 259 263 259 251 246 242 238 240 249 253 260 265 270 264 269 266 266 272 266 269 266 260 251 239 220 192 187 181 179
161 171 185 208 227 235 245 257 267 276 283 289 294 299 299 298 302 300 299 299 300 298 295 295 295 294 292 293 292 291 295 299 296 295 293 288 287 282 280 278 275 274 272 270 270 268 269 269 270 270 271 271 268 272 276 271 269 267 266 257 242 230 227 235 240 250 257 263 271 275 258 259 265 257 258 253 259 261 257 238 225 197 177 176 175
163 168 192 208 223 231 242 256 270 278 289 298 303 305 304 303 301 299 302 299 297 297 296 295 292 294 294 294 291 299 303 298 297 292 290 287 282 281 279 277 276 272 267 266 261 260 263 264 264 263 265 265 269 270 270 273 274 272 273 270 242 227 224 231 237 249 256 265 271 270 271 256 248 262 252 246 253 251 254 247 214 197 182 172 171
161 174 183 204 211 226 244 260 272 288 299 305 306 305 302 298 299 297 298 298 296 294 296 295 294 292 294 300 303 303 299 301 298 296 292 288 286 279 277 275 271 270 267 263 262 261 257 262 260 260 256 258 260 261 260 259 265 271 269 270 254 232 228 233 237 248 257 263 265 273 271 273 257 250 267 260 258 255 241 229 214 191 183 177 169
163 170 185 197 208 222 251 265 283 298 313 315 308 304 301 298 296 296 294 293 291 291 293 292 294 295 296 301 303 301 303 297 297 293 294 292 289 286 281 272 268 265 269 262 262 256 259 253 257 251 246 248 252 255 256 252 252 259 263 269 266 235 232 228 236 248 258 261 266 269 275 277 271 273 264 249 242 247 244 217 205 190 178 173 173
159 175 184 188 202 230 255 273 289 323 323 311 306 301 297 295 293 292 291 289 290 291 292 296 299 302 306 306 307 304 298 297 291 293 293 292 291 290 288 285 279 272 264 262 263 257 259 249 247 249 254 256 257 260 259 256 252 250 257 264 273 270 232 225 232 243 253 258 257 263 267 267 270 265 259 249 245 243 238 222 195 175 169 168 166
165 172 180 184 206 233 248 266 314 321 315 307 297 293 294 292 290 287 286 288 288 290 298 303 305 305 308 307 308 304 301 295 295 294 296 295 295 291 288 283 277 275 266 262 260 261 255 241 242 243 251 263 265 265 263 259 255 252 251 253 256 259 261 236 235 240 252 256 258 258 260 267 269 269 262 257 249 239 231 217 188 172 173 169 170
165 171 176 187 207 218 237 285 320 312 308 296 292 290 287 285 285 287 287 291 292 294 302 305 307 310 308 308 304 299 297 298 296 298 298 298 297 293 288 284 280 273 269 259 261 253 251 242 240 244 238 246 260 263 262 257 255 253 250 250 251 252 248 241 238 244 245 253 254 250 256 260 268 267 267 262 251 242 227 214 184 167 165 168 156
164 167 173 187 194 194 240 311 318 305 296 290 288 285 281 283 285 289 290 294 298 303 307 306 307 307 306 302 300 298 294 297 298 299 301 302 302 300 293 286 281 279 274 266 255 252 254 252 248 236 250 250 260 258 263 266 260 257 258 259 261 258 252 241 235 241 250 253 251 252 248 261 268 262 263 266 255 241 215 204 187 166 163 163 166
161 168 171 182 174 191 195 3 305 293 291 287 285 285 283 283 289 289 294 300 303 304 303 304 305 305 303 301 299 295 293 294 299 302 305 305 305 305 298 295 291 289 290 285 269 257 256 253 249 247 251 252 250 257 254 255 258 258 256 256 255 259 258 256 254 253 251 249 248 252 255 254 259 267 268 275 270 238 215 193 183 168 166 169 170
160 167 168 163 169 181 139 325 292 288 286 283 284 282 284 288 294 302 306 307 310 307 308 308 304 298 296 294 292 289 288 297 304 306 308 310 310 310 299 300 301 299 296 291 285 270 261 254 248 251 251 241 245 254 259 257 247 244 253 259 259 254 251 248 245 245 246 247 249 253 262 260 260 265 267 264 271 254 214 192 177 174 164 142 143
160 164 159 166 173 143 129 268 278 280 283 285 285 289 292 297 301 305 305 305 300 300 299 297 295 297 294 292 291 290 290 301 306 309 312 312 313 313 309 306 303 297 292 291 284 277 265 254 250 250 249 252 250 253 252 256 253 251 250 254 256 252 249 241 241 240 241 244 249 255 259 263 265 262 258 258 265 266 225 204 176 159 145 144 149
162 159 160 171 155 135 160 246 267 276 277 284 287 291 300 303 307 312 308 306 307 307 299 296 293 292 297 298 293 292 289 301 309 313 314 314 317 316 311 304 300 299 298 296 292 283 269 256 250 247 248 252 253 255 255 254 248 247 248 249 249 252 254 245 239 246 248 247 252 256 260 266 268 268 266 260 258 265 256 198 176 152 153 152 153
158 159 167 165 146 147 184 246 260 272 276 275 284 292 292 296 303 311 310 309 308 301 298 294 292 295 303 303 298 298 302 306 311 315 316 318 321 317 309 307 303 303 300 295 292 283 274 266 257 252 253 253 256 256 257 259 267 262 248 239 244 249 252 252 254 249 244 248 252 256 261 271 271 270 260 258 258 259 235 196 173 160 156 150 155
158 164 160 144 131 144 221 244 254 266 273 275 282 286 298 305 303 302 300 300 297 296 295 296 301 305 305 299 307 312 298 303 309 316 320 320 321 316 314 309 305 301 300 297 293 289 278 266 260 257 254 255 256 257 255 254 254 254 258 262 256 251 248 248 248 252 252 253 255 263 271 273 278 269 254 250 250 250 235 195 173 167 158 159 154
153 146 140 129 124 170 245 241 249 253 267 283 280 281 296 301 308 310 302 298 298 298 293 296 310 311 303 303 305 304 303 300 310 320 322 321 323 321 314 307 304 303 302 299 299 294 286 276 261 260 262 261 259 257 257 254 249 244 244 248 254 258 262 261 253 250 261 260 267 270 272 279 281 269 252 247 246 241 231 198 173 168 159 159 156
142 145 128 119 128 206 248 240 249 260 259 272 282 292 301 309 309 304 303 300 296 301 306 309 298 294 296 304 307 310 307 317 319 323 324 324 323 323 311 310 308 307 307 303 299 299 295 285 277 252 262 264 260 258 255 255 254 248 240 244 245 255 260 261 261 252 256 264 270 275 279 281 277 263 246 239 236 234 217 199 187 173 161 157 160
139 131 122 110 147 226 229 250 253 251 270 277 296 304 307 307 300 304 300 302 309 309 315 298 302 296 304 314 309 314 320 324 324 322 323 324 325 325 323 315 314 311 306 302 299 298 292 291 289 276 267 266 264 258 255 252 252 252 250 249 251 252 252 252 258 257 254 263 270 278 282 279 276 255 236 226 225 219 222 193 186 187 175 160 162
133 118 110 127 184 225 237 244 258 259 272 283 301 314 319 319 313 305 304 305 311 316 308 305 303 311 326 323 319 318 319 319 325 327 328 328 327 327 324 321 318 316 307 303 303 299 295 290 285 284 279 272 268 262 256 254 251 247 249 250 250 251 250 246 246 250 253 257 265 273 274 274 267 240 221 216 212 209 222 195 175 167 181 178 157
121 109 114 156 207 234 236 247 254 261 280 303 316 334 331 320 310 303 305 303 300 302 307 308 308 329 328 330 332 332 329 321 329 332 332 331 332 331 329 327 324 319 312 303 301 295 295 291 284 282 282 280 276 266 258 256 251 249 251 252 253 251 241 241 236 241 242 250 258 261 266 268 257 227 215 202 196 199 212 196 178 166 155 109 63
114 108 127 196 221 231 245 237 236 248 300 328 359 347 331 326 315 312 304 303 305 302 308 305 326 330 327 328 330 331 334 333 331 330 330 332 333 333 333 331 326 324 316 306 298 295 292 291 290 288 283 277 275 274 264 254 253 254 249 248 250 248 243 231 233 227 238 247 252 259 265 267 249 229 198 193 185 163 123 55 52 69 84 88 71
113 122 162 216 245 230 207 180 175 146 349 1 18 328 301 304 300 301 299 304 304 300 300 315 334 330 328 326 325 322 324 331 329 323 323 336 335 336 336 334 329 324 319 310 308 302 295 288 284 282 281 276 271 260 251 241 241 247 251 247 241 244 229 222 215 227 239 249 257 264 269 272 253 229 189 183 174 146 119 124 121 122 130 122 100
120 131 177 213 256 313 41 61 73 158 13 22 11 337 304 299 298 284 299 312 309 305 305 331 329 332 329 325 328 322 319 331 330 321 333 338 338 337 339 335 332 329 324 322 317 308 299 291 275 272 272 272 270 270 264 242 236 239 243 238 238 240 237 227 228 234 241 248 259 267 272 269 255 207 182 180 173 155 143 147 148 151 146 143 134
131 150 177 181 161 57 64 22 20 358 35 31 7 335 317 306 286 297 308 308 296 305 327 329 331 329 330 330 332 325 324 335 336 339 344 342 341 340 338 336 335 333 332 330 327 318 311 295 287 277 269 266 263 247 237 222 221 233 234 230 232 234 236 238 239 238 241 245 261 268 270 267 242 199 179 176 182 160 149 147 158 155 151 140 137
133 149 161 155 128 107 69 59 25 8 349 28 79 240 274 295 294 299 314 315 316 326 324 332 333 333 328 332 331 319 333 338 337 342 342 344 346 345 343 342 337 336 338 340 331 323 331 341 329 307 287 281 273 259 234 210 219 225 228 234 228 223 229 219 225 231 239 243 246 254 259 254 232 197 176 183 181 163 159 148 158 153 153 152 149
138 142 155 143 141 112 84 67 36 31 27 3 343 333 244 273 303 314 317 333 337 341 345 341 340 336 332 340 336 336 337 335 336 342 345 347 350 351 351 348 343 342 345 345 337 337 345 345 350 349 351 352 329 287 237 224 229 221 226 224 228 232 227 228 231 239 237 236 241 245 247 241 226 201 179 177 178 167 167 158 155 159 157 158 150
134 143 142 147 141 125 120 100 63 55 39 20 357 337 332 326 297 318 343 344 343 343 346 348 347 347 346 339 336 341 340 341 343 346 348 351 354 355 355 352 350 351 350 349 340 359 350 349 346 345 352 348 358 349 335 304 239 229 231 218 220 227 228 233 233 235 237 238 238 239 236 229 220 201 186 171 173 171 165 167 160 163 165 156 154
139 150 148 147 128 123 114 116 105 76 64 37 349 345 346 329 327 326 339 354 349 347 346 347 348 350 351 351 345 341 346 346 347 349 352 355 358 358 359 354 356 357 350 1 9 3 351 349 347 352 349 351 353 343 341 346 335 309 248 224 231 224 231 236 234 231 237 236 235 231 227 220 214 205 195 174 167 173 166 165 171 170 165 163 161
135 133 148 144 140 128 116 110 88 88 85 55 12 349 330 324 328 321 327 333 341 351 354 352 351 351 351 352 349 352 350 348 350 352 354 358 359 358 359 357 358 0 359 4 4 354 354 352 355 347 351 352 344 342 339 336 332 334 328 290 240 226 222 226 223 227 231 231 227 228 223 213 211 201 199 181 168 171 173 169 175 178 167 165 162
141 143 143 155 143 135 128 119 109 93 97 85 257 292 284 276 275 291 308 321 336 342 345 349 350 349 350 351 347 352 353 352 353 355 357 360 0 359 3 355 357 2 6 350 354 352 343 347 346 348 350 348 344 340 340 336 334 331 327 328 317 276 233 218 216 223 227 226 224 228 219 212 208 201 196 184 178 170 175 177 172 175 173 168 162
131 138 146 145 138 131 132 124 114 101 109 105 288 295 291 277 281 284 290 307 315 316 315 324 336 344 349 349 346 352 353 353 353 356 359 1 2 360 7 7 359 354 354 350 343 348 345 342 347 351 345 341 345 344 336 332 333 331 328 319 317 316 284 237 224 219 219 221 222 221 215 205 203 202 195 185 180 177 178 175 174 174 171 167 164
135 136 143 144 129 124 120 122 110 109 134 162 257 306 294 290 293 294 297 299 289 298 309 318 318 324 347 347 348 351 353 351 353 355 357 1 6 7 12 3 352 350 349 341 334 338 334 343 346 336 335 346 344 337 335 335 331 327 320 316 316 314 310 286 238 215 211 220 220 218 212 204 198 197 195 190 187 182 176 174 174 178 173 166 164
140 138 138 142 134 121 124 115 115 109 86 78 30 311 288 286 287 291 299 300 308 299 304 309 323 337 347 352 344 344 350 349 351 352 354 359 5 11 11 1 351 341 345 338 331 340 343 342 341 341 343 339 334 337 338 333 333 328 326 322 311 307 306 305 274 212 211 215 217 215 211 202 196 193 191 191 191 190 181 178 177 176 173 163 159
144 141 144 150 133 129 110 102 93 82 81 69 343 308 294 300 302 315 318 321 317 316 321 326 338 344 347 345 330 344 347 342 348 355 355 0 6 6 1 359 356 346 340 334 329 334 338 338 338 345 339 335 338 337 335 336 336 332 331 325 321 313 316 310 289 242 220 211 214 211 209 205 195 193 192 193 189 188 186 179 174 174 172 164 164
150 154 147 139 132 122 119 105 93 91 82 80 359 9 337 340 341 336 340 330 315 321 325 331 338 344 338 327 305 352 350 353 0 358 351 353 357 2 358 354 354 349 337 330 332 339 335 338 338 340 342 345 345 339 338 333 333 334 333 331 326 325 330 334 325 293 231 214 215 208 206 201 197 194 194 195 192 188 184 182 178 175 172 172 176
156 145 138 133 118 117 108 104 101 97 96 83 24 9 351 349 350 343 333 327 327 325 328 337 338 334 328 311 328 4 356 347 344 351 352 349 354 357 1 352 346 342 336 338 339 336 336 334 335 339 345 349 348 341 338 337 335 332 333 338 334 329 327 327 330 330 314 252 212 213 202 200 194 195 195 197 196 190 184 180 181 179 180 178 180
146 137 134 127 130 119 107 100 97 100 102 94 55 23 338 345 341 334 311 309 309 324 334 332 326 323 317 334 354 6 10 336 337 343 349 344 345 346 345 344 349 344 334 329 332 333 334 336 334 339 344 345 344 343 342 342 341 339 337 338 337 333 327 325 329 330 330 320 279 213 207 200 197 192 196 197 193 190 189 182 181 183 184 181 172
137 133 120 118 117 116 109 100 96 89 91 88 62 358 330 344 339 323 325 323 323 331 335 334 328 326 326 345 354 1 1 333 336 340 342 349 349 347 347 349 349 339 324 324 329 328 333 334 334 337 347 352 349 347 345 347 347 343 339 337 337 335 333 333 330 328 327 320 316 282 214 202 199 199 197 193 188 190 186 186 183 182 181 176 171
138 130 131 122 120 112 115 116 109 100 78 101 14 338 359 16 339 323 318 319 327 339 349 342 336 335 335 342 349 354 350 342 338 340 338 341 342 346 348 345 343 341 324 312 322 323 331 331 334 339 348 353 352 349 346 346 342 340 334 336 331 331 334 330 330 328 325 321 312 310 288 214 202 201 199 193 191 186 186 184 186 183 180 174 172
129 124 121 116 113 102 100 106 106 111 130 104 66 7 19 29 326 316 313 325 334 348 350 339 329 335 329 336 344 350 349 343 340 340 338 337 342 345 346 344 345 339 341 335 329 327 332 337 336 339 344 352 354 351 349 346 345 343 340 335 332 336 335 335 329 324 320 314 306 303 299 262 212 201 197 194 192 189 185 183 184 183 178 176 171
129 128 127 118 119 111 110 102 111 115 112 99 79 16 22 5 333 312 324 332 335 348 353 342 339 327 328 333 341 340 337 333 329 330 337 339 336 336 339 341 341 339 342 338 331 326 334 339 337 340 346 350 356 354 353 349 348 345 343 343 345 341 341 333 321 311 303 296 298 296 293 286 225 205 196 194 192 191 192 186 183 179 179 180 176
133 133 128 126 121 116 117 119 118 122 131 133 107 76 346 340 313 309 328 331 343 355 354 346 333 328 321 322 326 331 333 332 331 329 327 335 334 335 333 336 339 346 349 343 336 337 338 340 339 339 339 342 354 354 354 351 352 350 351 352 352 349 341 335 323 309 303 300 292 288 282 285 241 204 197 191 193 192 191 187 186 183 183 180 182
131 128 131 128 127 127 126 126 118 116 116 115 122 108 356 330 313 333 329 342 357 356 358 343 340 333 329 325 326 328 329 330 328 329 329 324 328 331 331 333 336 332 346 349 347 339 339 344 345 345 344 341 352 356 354 355 353 351 356 354 358 356 354 347 336 325 316 306 297 285 286 282 235 188 188 192 195 193 191 188 186 184 187 183 181
127 126 123 125 122 123 128 132 134 129 125 142 131 119 353 308 327 318 335 351 357 353 349 339 331 321 322 319 316 318 322 320 319 319 324 328 330 329 331 336 337 329 317 344 348 339 339 343 346 347 346 343 352 358 355 354 354 356 357 359 1 2 358 357 350 347 332 322 311 318 310 309 247 183 173 178 180 173 180 184 186 190 187 187 183
131 129 129 130 128 133 139 145 146 151 151 150 115 105 237 335 299 305 321 341 348 347 343 337 329 326 320 313 315 318 317 322 327 330 333 331 329 332 332 331 333 337 326 327 337 345 347 348 347 346 347 346 342 359 356 356 357 358 359 1 2 5 5 3 1 1 350 339 335 343 345 353 357 355 199 176 174 172 171 165 169 173 178 181 183
130 130 129 128 125 127 129 132 141 150 150 136 140 133 153 305 294 320 330 344 342 344 339 337 329 322 320 321 326 326 329 332 332 329 329 325 330 330 331 333 337 339 340 338 331 342 347 347 347 346 347 348 342 354 2 359 359 359 1 2 5 9 9 8 4 7 6 350 356 359 4 10 8 9 11 0 338 177 165 166 164 164 166 167 169
125 123 120 127 126 134 134 142 146 158 151 149 144 151 193 258 266 290 310 330 336 329 331 331 322 321 322 314 311 315 321 319 319 320 320 328 330 331 332 335 337 338 340 342 334 339 346 346 344 345 346 348 348 347 5 1 2 360 3 6 9 11 11 11 10 9 13 14 11 14 17 15 18 19 16 8 4 14 120 163 162 162 168 169 167